Back to catalog

STARLINK-34231

AliveCommunicationsVLEO
NORAD 64175·PAYLOAD·🇺🇸 United States

Launched May 28, 2025 from Cape Canaveral Space Force Station

Loading…

Next Passes (next 24 hours)

TLE

FreshSource: CelesTrak SupGP

Epoch: Sep 14, 2026, 14:53 UTC

1 64175C 25113F   26257.62062500  .00010747  00000+0  34573-3 0  2578
2 64175  53.1580 292.2384 0001135  84.3674 147.3858 15.31684660    16

Track STARLINK-34231 in real time with AllMySat

Download on the App Store